Location: Newark
(52.3500°N, 175.9667°E)
Time: 12:52:45
(UTC+00:00)

N. Korean satellite - Pass Details

Date: 15 November 2019
Orbit: 455 x 507 km, 97.2° (Epoch: 12 December)

Event Time Altitude Azimuth Distance (km) Brightness Sun altitude
Rises 18:47:51 0° 9° (N) 2,628 10.2 -7.7°
Reaches altitude 10° 18:50:00 10° 3° (N) 1,736 9.2 -7.4°
Maximum altitude 18:53:36 48° 289° (WNW) 677 6.9 -6.9°
Drops below altitude 10° 18:57:10 10° 215° (SW) 1,712 9.2 -6.4°
Sets 18:59:16 0° 210° (SSW) 2,585 10.2 -6.1°
